Lexington Weather

Lexington, Massachusetts, USA

56°F
10/22/2020 8:06pm 
  • Lexington Conditions: Mostly cloudy
  • Temperature: 55.8°F / 13.2°C 
  • Dew Point: 54.3°F 
  • Relative Humidity: 95
  • Wind: Calm, 10-min avg: Calm, gust: 2 mph
  • Barometer: 30.22 in Steady
  • Visibility: 7 miles
  • Rain Today: 0.00 in
  •   
Southeast Middlesex County - Special Weather Statement
 - SEE ALL NEARBY ALERTS -

Regional Weather Roundup
for Boston / Norton, MA

        
000
ASUS41 KBOX 202204
RWRBOX

REGIONAL WEATHER ROUNDUP
NATIONAL WEATHER SERVICE BOSTON/NORTON MA
600 PM EDT TUE OCT 20 2020

NOTE:  "FAIR" INDICATES FEW OR NO CLOUDS BELOW 12,000 FEET WITH NO 
SIGNIFICANT WEATHER AND/OR OBSTRUCTIONS TO VISIBILITY.

MAZALL-202300-
EASTERN MASSACHUSETTS
  
CITY           SKY/WX    TMP DP  RH WIND       PRES   REMARKS
BOSTON         CLOUDY    63  59  87 SE6       30.22S                  
BEVERLY        CLOUDY    61  58  90 E5        30.22S                  
LAWRENCE       PTCLDY    64  60  87 SE3       30.23S                  
BEDFORD        MOCLDY    67  61  81 CALM      30.21R                  
BLUE HILL        N/A     63  60  90 SE6       30.22S                  
NORWOOD        CLOUDY    67  60  78 S3        30.22S                  
MARSHFIELD     CLOUDY    63  63 100 CALM      30.23S FOG              
PLYMOUTH       CLOUDY    63  62  97 CALM      30.23S                  
TAUNTON        CLOUDY    65  63  93 E6        30.23S                  
NEW BEDFORD    CLOUDY    63  62  97 SE3       30.22S                  
$$

MAZALL-202300-
CAPE COD AND THE ISLANDS
  
CITY           SKY/WX    TMP DP  RH WIND       PRES   REMARKS
FALMOUTH       DRZL/FOG  61  61 100 CALM      30.24S VSB 3/4          
HYANNIS        FOG       62  61  96 CALM      30.23S VSB 1/2          
CHATHAM        CLOUDY    62  60  93 CALM      30.26R FOG              
PROVINCETOWN   CLOUDY    60  60 100 SE5       30.25S                  
NANTUCKET      MOCLDY    63  62  97 S9        30.25R FOG              
MARTHAS VNYRD  LGT RAIN  65  64  97 S7        30.23S FOG              
$$
 
MAZALL-202300-
CENTRAL AND WESTERN MASSACHUSETTS
  
CITY           SKY/WX    TMP DP  RH WIND       PRES   REMARKS
WORCESTER      CLOUDY    65  59  81 SW3       30.24R                  
FITCHBURG      MOCLDY    64  60  87 CALM      30.23R                  
ORANGE         MOCLDY    64  60  87 CALM      30.23R                  
SPRINGFIELD    MOCLDY    66  60  81 CALM      30.21R                  
WESTFIELD      MOCLDY    66  63  90 CALM      30.22R                  
NORTH ADAMS    CLOUDY    64  59  83 CALM      30.22S                  
PITTSFIELD     CLOUDY    62  55  77 CALM      30.22S                  
$$
 
RIZALL-202300-
RHODE ISLAND
  
CITY           SKY/WX    TMP DP  RH WIND       PRES   REMARKS
PROVIDENCE     CLOUDY    63  63 100 CALM      30.24R FOG              
NEWPORT        CLOUDY    62  62 100 CALM      30.23S                  
BLOCK ISLAND   FOG       61  60  97 NE3       30.24R VSB 1/4          
SMITHFIELD     CLOUDY    63  63 100 CALM        N/A                   
WESTERLY       CLOUDY    65  62  90 CALM      30.23R                  
$$
 
CTZALL-202300-
CONNECTICUT
  
CITY           SKY/WX    TMP DP  RH WIND       PRES   REMARKS
BRADLEY INTL   MOCLDY    68  60  75 S5        30.21R                  
HARTFORD       PTCLDY    68  61  78 S5        30.21S                  
BRIDGEPORT     CLEAR     64  62  93 SE5       30.22S                  
DANBURY        PTCLDY    64  60  87 CALM      30.23R                  
GROTON         CLOUDY    65  63  93 CALM      30.23R                  
NEW HAVEN      MOCLDY    65  62  90 SE3       30.23R                  
CHESTER        CLOUDY    66  64  94 CALM      30.23R                  
MERIDEN        CLEAR     66  60  81 CALM      30.22R                  
WILLIMANTIC    CLOUDY    67  62  84 SE3       30.22R                  
OXFORD         PTCLDY    64  61  90 CALM      30.24R                  
$$

MEZ002-015-021-024-NHZ003-005-008-011-012-014-VTZ005-008-202300-
NORTHERN NEW ENGLAND
  
CITY           SKY/WX    TMP DP  RH WIND       PRES   REMARKS
PORTLAND ME    MOCLDY    57  55  93 S5        30.23R                  
BANGOR ME      CLOUDY    57  55  93 S3        30.25R                  
CONCORD NH     CLOUDY    64  56  75 CALM      30.22R                  
MANCHESTER NH  MOCLDY    66  58  75 SE3       30.21R                  
NASHUA NH      MOCLDY    65  62  90 CALM      30.23R                  
PORTSMOUTH NH  MOCLDY    60  56  87 CALM      30.21R                  
JAFFREY NH     MOCLDY    63  57  81 S3        30.24R                  
KEENE NH       CLOUDY    63  59  87 CALM      30.23R                  
BURLINGTON VT  CLOUDY    50  44  80 N6        30.31S                  
MT. WASHINGTON FOG       41  41 100 W33         N/A  VSB 1/16WCI  29  
$$

NYZ052-076-202300-
EASTERN NEW YORK
  
CITY           SKY/WX    TMP DP  RH WIND       PRES   REMARKS
ALBANY         LGT RAIN  57  57 100 NW9       30.24R                  
NEW YORK CITY  MOCLDY    69  60  73 S12       30.21R                  
$$
 
ANZALL-202300-
MARINE OBSERVATIONS
  
STATION/POSITION TIME  TEMP    WIND        PRES    VSBY  WAVE
                       AIR SEA DIR/SP/G                  HT/PER
                 (UTC) (F)     (DEG/KT/KT) (MB)    (MI)  (FT/S)
BOSTON BUOY      2150   59 58  130/ 10/ 12 1022.5R         2/ 8
BUZZARDS BAY     2100           40/  5/  6 1024.5R
NANTUCKET SOUND  2150      61  180/  6/  6   N/A           1/ 3
MASS BAY-STELLWA 2104   59 58  160/  6/  8 1023.0F  1 7/8  3/ 8
ISLE OF SHOALS   2100   58     160/ 13/ 13 1022.8F
S OF BLOCK IS    2126      63                N/A           3/10
$$

......................KEY.........................
  SKY/WX - SKY CONDITION/PRESENT WEATHER
  TMP    - TEMPERATURE IN FAHRENHEIT
  DWPT   - DEWPOINT IN FAHRENHEIT
  RH     - RELATIVE HUMIDITY IN PERCENT
  WIND   - DIRECTION AND SPEED IN MPH
  PRES   - MEAN SEA LEVEL PRESSURE IN INCHES OF HG
  WCI    - WIND CHILL INDEX
  VSB    - VISIBILITY IN MILES
  HX     - HEAT INDEX
  TC     - TEMPERATURE IN CELSIUS
  VRB    - VARIABLE WIND DIRECTION
  N/A    - NOT AVAILABLE
  
      

Other recent Regional Weather Roundups

Thu Oct 22, 7:05pm

Thu Oct 22, 6:04pm

Thu Oct 22, 5:04pm

Thu Oct 22, 4:05pm

Thu Oct 22, 3:04pm

Thu Oct 22, 2:05pm

Thu Oct 22, 1:04pm

Thu Oct 22, 12:04pm

Thu Oct 22, 11:04am

Thu Oct 22, 10:05am

Thu Oct 22, 9:04am

Thu Oct 22, 8:05am

Thu Oct 22, 7:04am

Thu Oct 22, 6:04am

Thu Oct 22, 5:04am

Thu Oct 22, 4:04am

Thu Oct 22, 3:04am

Thu Oct 22, 2:04am

Thu Oct 22, 1:04am

Thu Oct 22, 12:04am

Wed Oct 21, 11:05pm

Wed Oct 21, 10:04pm

Wed Oct 21, 9:04pm

Wed Oct 21, 8:04pm

Wed Oct 21, 7:04pm

Wed Oct 21, 6:04pm

Wed Oct 21, 5:05pm

Wed Oct 21, 4:04pm

Wed Oct 21, 3:04pm

Wed Oct 21, 2:05pm

Wed Oct 21, 1:04pm

Wed Oct 21, 12:04pm

Wed Oct 21, 11:04am

Wed Oct 21, 10:04am

Wed Oct 21, 9:04am

Wed Oct 21, 8:04am

Wed Oct 21, 7:04am

Wed Oct 21, 6:04am

Wed Oct 21, 5:04am

Wed Oct 21, 4:04am

Wed Oct 21, 3:04am

Wed Oct 21, 2:04am

Wed Oct 21, 1:04am

Wed Oct 21, 12:04am

Tue Oct 20, 11:05pm

Tue Oct 20, 10:04pm

Tue Oct 20, 9:04pm

Tue Oct 20, 8:05pm

Tue Oct 20, 7:04pm

Tue Oct 20, 5:05pm

Tue Oct 20, 4:04pm

Tue Oct 20, 3:05pm

Tue Oct 20, 2:07pm

Tue Oct 20, 1:04pm

Tue Oct 20, 12:04pm

Tue Oct 20, 11:04am

Tue Oct 20, 10:05am

Tue Oct 20, 9:04am

Tue Oct 20, 8:04am

Tue Oct 20, 7:04am

Tue Oct 20, 6:04am

Tue Oct 20, 5:04am

Tue Oct 20, 4:04am

Tue Oct 20, 3:04am

Tue Oct 20, 2:04am

Tue Oct 20, 1:04am

Tue Oct 20, 12:04am

Mon Oct 19, 11:04pm

Mon Oct 19, 10:04pm

Mon Oct 19, 9:04pm

Mon Oct 19, 8:04pm

Mon Oct 19, 7:04pm

Mon Oct 19, 6:04pm

Mon Oct 19, 5:04pm

Mon Oct 19, 4:04pm

Mon Oct 19, 3:04pm

Mon Oct 19, 2:04pm

Mon Oct 19, 1:05pm

Mon Oct 19, 12:04pm

Mon Oct 19, 11:04am

Mon Oct 19, 10:04am

Mon Oct 19, 9:04am

Mon Oct 19, 8:04am

Mon Oct 19, 7:04am

Mon Oct 19, 6:04am

Mon Oct 19, 5:04am

Mon Oct 19, 4:04am

Mon Oct 19, 3:04am

Mon Oct 19, 2:04am

Mon Oct 19, 1:04am

Mon Oct 19, 12:05am

Sun Oct 18, 11:04pm

Sun Oct 18, 10:04pm

Sun Oct 18, 9:04pm

Sun Oct 18, 8:04pm

Sun Oct 18, 7:05pm

Sun Oct 18, 6:04pm

Sun Oct 18, 5:05pm

Sun Oct 18, 4:05pm

Sun Oct 18, 3:04pm

Sun Oct 18, 2:05pm

Sun Oct 18, 1:04pm

Sun Oct 18, 12:04pm

Sun Oct 18, 11:04am

Sun Oct 18, 10:04am

Sun Oct 18, 9:04am

Sun Oct 18, 8:04am

Sun Oct 18, 7:04am

Sun Oct 18, 6:04am

Sun Oct 18, 5:04am

Sun Oct 18, 4:04am

Sun Oct 18, 3:04am

Sun Oct 18, 2:04am

Sun Oct 18, 1:04am

Sun Oct 18, 12:04am

Sat Oct 17, 11:05pm

Sat Oct 17, 10:04pm

Sat Oct 17, 9:04pm

Sat Oct 17, 8:04pm

Sat Oct 17, 7:04pm

Sat Oct 17, 6:04pm

Sat Oct 17, 5:05pm

Sat Oct 17, 4:04pm

Sat Oct 17, 3:04pm

Sat Oct 17, 2:05pm

Sat Oct 17, 1:05pm

Sat Oct 17, 12:04pm

Sat Oct 17, 11:05am

Sat Oct 17, 10:04am

Sat Oct 17, 9:04am

Sat Oct 17, 8:04am

Sat Oct 17, 7:04am

Sat Oct 17, 6:04am

Sat Oct 17, 5:04am

Sat Oct 17, 4:04am

Sat Oct 17, 3:04am

Sat Oct 17, 2:04am

Sat Oct 17, 1:05am

Sat Oct 17, 12:04am

Fri Oct 16, 11:05pm

Fri Oct 16, 10:04pm

Fri Oct 16, 9:05pm

Fri Oct 16, 8:04pm

Fri Oct 16, 7:05pm

Fri Oct 16, 6:04pm

Fri Oct 16, 5:04pm

Fri Oct 16, 4:05pm

Fri Oct 16, 3:04pm

Fri Oct 16, 2:04pm

Fri Oct 16, 1:04pm

Fri Oct 16, 12:04pm

Fri Oct 16, 11:05am

Fri Oct 16, 10:04am

Fri Oct 16, 9:04am

Fri Oct 16, 8:04am

Fri Oct 16, 7:04am

Fri Oct 16, 6:04am

Fri Oct 16, 5:04am

Fri Oct 16, 4:04am

Fri Oct 16, 3:04am

Fri Oct 16, 2:04am

Fri Oct 16, 1:04am

Fri Oct 16, 12:04am

Thu Oct 15, 11:04pm

Thu Oct 15, 10:04pm

Thu Oct 15, 9:05pm

Thu Oct 15, 8:04pm

Meta data:

ID: 2d6a73a9-0be6-4918-95db-2f43baa05618
Link: https://api.weather.gov/products/2d6a73a9-0be6-4918-95db-2f43baa05618